Regional Weather Roundup
Issued by NWS

Home | Current Version | Previous Version | Graphics & Text | Print | Product List | Glossary On
Versions: 1 2 3 4 5 6 7 8 9 10 11 12 13 14 15 16 17 18 19 20 21 22 23 24 25 26 27 28
000
ASUS45 KBOI 162110
RWRID

IDAHO REGIONAL WEATHER ROUNDUP
NATIONAL WEATHER SERVICE BOISE ID
300 PM MDT MON OCT 16 2017

NOTE: "FAIR" INDICATES FEW OR NO CLOUDS BELOW 12000 FEET
WITH NO SIGNIFICANT WEATHER AND/OR OBSTRUCTIONS TO VISIBILITY

IDZ012-014-162200-
SOUTHWEST IDAHO


CITY           SKY/WX    TMP DP  RH WIND       PRES   REMARKS
BOISE          SUNNY     62  26  25 NW5       30.31F
CALDWELL       SUNNY     58  29  33 CALM      30.33F
MOUNTAIN HOME  SUNNY     61  28  29 SE5       30.31F
$$

IDZ016-017-162200-
SOUTHCENTRAL IDAHO


CITY           SKY/WX    TMP DP  RH WIND       PRES   REMARKS
BURLEY         SUNNY     63  19  18 CALM      30.31F
JEROME         SUNNY     62  21  20 CALM      30.32F
TWIN FALLS     SUNNY     62  23  22 CALM      30.32F
$$

IDZ019>023-162200-
SOUTHEAST IDAHO


CITY           SKY/WX    TMP DP  RH WIND       PRES   REMARKS
IDAHO FALLS    SUNNY     57  21  24 SW9       30.36F
POCATELLO      SUNNY     60  23  24 W3        30.35F
REXBURG        SUNNY     56  17  21 SW8       30.35F
$$

IDZ006-010-011-018-031-032-162200-
CENTRAL IDAHO MOUNTAINS


CITY           SKY/WX    TMP DP  RH WIND       PRES   REMARKS
MCCALL         SUNNY     56  28  34 SW5       30.31F
HAILEY         SUNNY     57  25  28 SE12      30.36F
STANLEY          N/A     59  15  18 N3        30.35F
SALMON         SUNNY     54  28  36 CALM      30.29F
CHALLIS        SUNNY     57  21  24 VRB3      30.29F
$$

IDZ002-004-006-007-026-162200-
NORTHERN IDAHO


CITY           SKY/WX    TMP DP  RH WIND       PRES   REMARKS
LEWISTON       SUNNY     66  32  28 CALM      30.18F
LOWELL           N/A     60  43  53 N3        30.22F
COEUR D`ALENE  SUNNY     60  33  36 VRB3      30.19F
MULLAN PASS    SUNNY     48  21  34 W8        30.25S
$$




USA.gov is the U.S. government's official web portal to all federal, state and local government web resources and services.